• In Belarus
  • List of Countries
  • For 7 days
  • Water Temperature
  • Satellite Maps
  • Weather Map
  • Weather Widgets
  • user-avatar
    Login

    Hourly Weather Canet-Plage

    Today, 17 December, Sunday

    Time Temperature Precipitation Wind Pressure Humidity
    00:00 +2°C° 0 mm 9 mps 768 mmHg 70%
    01:00 +2°C° 0 mm 9 mps 768 mmHg 69%
    02:00 +2°C° 0 mm 10 mps 768 mmHg 68%
    03:00 +2°C° 0 mm 10 mps 768 mmHg 67%
    04:00 +2°C° 0 mm 10 mps 769 mmHg 66%
    05:00 +2°C° 0 mm 10 mps 769 mmHg 64%
    06:00 +2°C° 0 mm 10 mps 769 mmHg 63%
    07:00 +2°C° 0 mm 10 mps 769 mmHg 60%
    08:00 +3°C° 0 mm 10 mps 770 mmHg 57%
    09:00 +5°C° 0 mm 10 mps 770 mmHg 54%
    10:00 +6°C° 0 mm 10 mps 770 mmHg 51%
    11:00 +7°C° 0 mm 10 mps 770 mmHg 48%
    12:00 +10°C° 0 mm 9 mps 770 mmHg 49%
    13:00 +8°C° 0 mm 9 mps 770 mmHg 51%
    14:00 +8°C° 0 mm 9 mps 770 mmHg 54%
    15:00 +8°C° 0 mm 9 mps 770 mmHg 56%
    16:00 +7°C° 0 mm 9 mps 770 mmHg 60%
    17:00 +6°C° 0 mm 9 mps 770 mmHg 64%
    18:00 +5°C° 0 mm 8 mps 771 mmHg 68%
    19:00 +5°C° 0 mm 8 mps 771 mmHg 69%
    20:00 +5°C° 0 mm 8 mps 772 mmHg 70%
    21:00 +5°C° 0 mm 8 mps 772 mmHg 71%
    22:00 +5°C° 0 mm 8 mps 772 mmHg 72%
    23:00 +5°C° 0 mm 8 mps 772 mmHg 73%

    Tomorrow, 18 December, Monday

    Time Temperature Precipitation Wind Pressure Humidity
    00:00 +5°C° 0 mm 8 mps 772 mmHg 74%
    01:00 +5°C° 0 mm 7 mps 772 mmHg 74%
    02:00 +5°C° 0 mm 7 mps 772 mmHg 74%
    03:00 +5°C° 0 mm 7 mps 772 mmHg 74%
    04:00 +5°C° 0 mm 7 mps 772 mmHg 73%
    05:00 +5°C° 0 mm 7 mps 771 mmHg 71%
    06:00 +5°C° 0 mm 7 mps 771 mmHg 70%
    07:00 +6°C° 0 mm 7 mps 771 mmHg 68%
    08:00 +8°C° 0 mm 7 mps 771 mmHg 65%
    09:00 +9°C° 0 mm 7 mps 771 mmHg 63%
    10:00 +10°C° 0.1 mm 7 mps 770 mmHg 62%
    11:00 +11°C° 0.1 mm 6 mps 770 mmHg 61%
    12:00 +11°C° 0.1 mm 6 mps 769 mmHg 60%
    13:00 +11°C° 0.5 mm 6 mps 768 mmHg 67%
    14:00 +10°C° 0.5 mm 6 mps 767 mmHg 74%
    15:00 +9°C° 0.5 mm 6 mps 766 mmHg 81%
    16:00 +9°C° 0.3 mm 6 mps 766 mmHg 83%
    17:00 +9°C° 0.3 mm 6 mps 766 mmHg 85%
    18:00 +9°C° 0.3 mm 7 mps 766 mmHg 87%
    19:00 +9°C° 0.6 mm 7 mps 766 mmHg 87%
    20:00 +9°C° 0.6 mm 7 mps 767 mmHg 88%
    21:00 +9°C° 0.6 mm 7 mps 767 mmHg 88%
    22:00 +8°C° 0.1 mm 7 mps 768 mmHg 86%
    23:00 +8°C° 0.1 mm 7 mps 768 mmHg 84%

    Day after tomorrow, 19 December, Tuesday

    Time Temperature Precipitation Wind Pressure Humidity
    00:00 +6°C° 0.1 mm 7 mps 769 mmHg 82%
    01:00 +7°C° 0 mm 6 mps 769 mmHg 83%
    02:00 +5°C° 0 mm 6 mps 770 mmHg 84%
    03:00 +4°C° 0 mm 6 mps 770 mmHg 84%
    04:00 +5°C° 0 mm 5 mps 771 mmHg 85%
    05:00 +5°C° 0 mm 5 mps 771 mmHg 85%
    06:00 +3°C° 0 mm 5 mps 772 mmHg 85%
    07:00 +5°C° 0 mm 5 mps 772 mmHg 81%
    08:00 +5°C° 0 mm 5 mps 773 mmHg 77%
    09:00 +6°C° 0 mm 5 mps 773 mmHg 73%
    10:00 +7°C° 0 mm 5 mps 773 mmHg 68%
    11:00 +8°C° 0 mm 5 mps 773 mmHg 63%
    12:00 +10°C° 0 mm 5 mps 773 mmHg 58%
    13:00 +9°C° 0 mm 5 mps 773 mmHg 60%
    14:00 +9°C° 0 mm 5 mps 773 mmHg 61%
    15:00 +9°C° 0 mm 5 mps 773 mmHg 62%
    16:00 +8°C° 0 mm 5 mps 773 mmHg 68%
    17:00 +7°C° 0 mm 5 mps 774 mmHg 73%
    18:00 +5°C° 0 mm 5 mps 775 mmHg 79%
    19:00 +5°C° 0 mm 5 mps 775 mmHg 78%
    20:00 +5°C° 0 mm 5 mps 775 mmHg 78%
    21:00 +3°C° 0 mm 5 mps 776 mmHg 78%
    22:00 +3°C° 0 mm 5 mps 775 mmHg 77%
    23:00 +3°C° 0 mm 5 mps 775 mmHg 76%

    20 December, Wednesday

    Time Temperature Precipitation Wind Pressure Humidity
    00:00 +3°C° 0 mm 5 mps 775 mmHg 75%
    01:00 +3°C° 0 mm 5 mps 775 mmHg 74%
    02:00 +3°C° 0 mm 5 mps 775 mmHg 73%
    03:00 +3°C° 0 mm 5 mps 774 mmHg 72%
    04:00 +3°C° 0 mm 5 mps 774 mmHg 71%
    05:00 +3°C° 0 mm 5 mps 774 mmHg 69%
    06:00 +3°C° 0 mm 5 mps 774 mmHg 67%
    07:00 +4°C° 0 mm 6 mps 774 mmHg 64%
    08:00 +5°C° 0 mm 6 mps 774 mmHg 61%
    09:00 +6°C° 0 mm 7 mps 774 mmHg 57%
    10:00 +9°C° 0 mm 7 mps 774 mmHg 55%
    11:00 +10°C° 0 mm 7 mps 774 mmHg 53%
    12:00 +12°C° 0 mm 7 mps 774 mmHg 51%
    13:00 +11°C° 0 mm 7 mps 773 mmHg 54%
    14:00 +11°C° 0 mm 7 mps 773 mmHg 56%
    15:00 +11°C° 0 mm 7 mps 773 mmHg 59%
    16:00 +10°C° 0 mm 6 mps 774 mmHg 63%
    17:00 +9°C° 0 mm 6 mps 774 mmHg 67%
    18:00 +7°C° 0 mm 6 mps 775 mmHg 72%
    19:00 +7°C° 0 mm 6 mps 775 mmHg 72%
    20:00 +7°C° 0 mm 6 mps 776 mmHg 73%
    21:00 +7°C° 0 mm 6 mps 776 mmHg 73%
    22:00 +7°C° 0 mm 6 mps 776 mmHg 73%
    23:00 +7°C° 0 mm 6 mps 776 mmHg 73%

    21 December, Thursday

    Time Temperature Precipitation Wind Pressure Humidity
    00:00 +7°C° 0 mm 6 mps 776 mmHg 74%
    01:00 +7°C° 0 mm 5 mps 777 mmHg 74%
    02:00 +7°C° 0 mm 5 mps 777 mmHg 75%
    03:00 +6°C° 0 mm 5 mps 777 mmHg 75%
    04:00 +6°C° 0 mm 5 mps 777 mmHg 75%
    05:00 +6°C° 0 mm 5 mps 777 mmHg 75%
    06:00 +6°C° 0 mm 5 mps 777 mmHg 75%
    07:00 +7°C° 0 mm 5 mps 777 mmHg 72%
    08:00 +8°C° 0 mm 5 mps 778 mmHg 69%
    09:00 +9°C° 0 mm 5 mps 778 mmHg 66%
    10:00 +10°C° 0 mm 5 mps 778 mmHg 61%
    11:00 +11°C° 0 mm 6 mps 777 mmHg 57%
    12:00 +14°C° 0 mm 6 mps 777 mmHg 52%
    13:00 +14°C° 0 mm 6 mps 777 mmHg 54%
    14:00 +14°C° 0 mm 5 mps 776 mmHg 56%
    15:00 +13°C° 0 mm 5 mps 776 mmHg 57%
    16:00 +11°C° 0 mm 6 mps 777 mmHg 61%
    17:00 +10°C° 0 mm 6 mps 777 mmHg 65%
    18:00 +8°C° 0 mm 7 mps 777 mmHg 69%
    19:00 +8°C° 0 mm 7 mps 777 mmHg 68%
    20:00 +8°C° 0 mm 7 mps 777 mmHg 67%
    21:00 +9°C° 0 mm 7 mps 777 mmHg 65%
    22:00 +9°C° 0 mm 8 mps 777 mmHg 66%
    23:00 +9°C° 0 mm 8 mps 777 mmHg 67%

    22 December, Friday

    Time Temperature Precipitation Wind Pressure Humidity
    00:00 +9°C° 0 mm 8 mps 777 mmHg 68%
    01:00 +9°C° 0 mm 8 mps 776 mmHg 68%
    02:00 +9°C° 0 mm 8 mps 776 mmHg 68%
    03:00 +8°C° 0 mm 9 mps 776 mmHg 68%
    04:00 +8°C° 0 mm 9 mps 776 mmHg 69%
    05:00 +8°C° 0 mm 9 mps 775 mmHg 70%
    06:00 +8°C° 0 mm 10 mps 775 mmHg 70%
    07:00 +9°C° 0 mm 10 mps 775 mmHg 69%
    08:00 +9°C° 0 mm 10 mps 775 mmHg 68%
    09:00 +11°C° 0 mm 10 mps 776 mmHg 67%
    10:00 +12°C° 0 mm 10 mps 775 mmHg 64%
    11:00 +13°C° 0 mm 10 mps 775 mmHg 61%
    12:00 +14°C° 0 mm 10 mps 775 mmHg 58%
    13:00 +13°C° 0 mm 10 mps 774 mmHg 59%
    14:00 +13°C° 0 mm 10 mps 774 mmHg 60%
    15:00 +12°C° 0 mm 10 mps 774 mmHg 61%
    16:00 +11°C° 0 mm 10 mps 774 mmHg 65%
    17:00 +9°C° 0 mm 10 mps 774 mmHg 70%
    18:00 +8°C° 0 mm 10 mps 774 mmHg 74%
    19:00 +8°C° 0 mm 10 mps 774 mmHg 74%
    20:00 +7°C° 0 mm 10 mps 774 mmHg 73%
    21:00 +7°C° 0 mm 10 mps 774 mmHg 73%
    22:00 +7°C° 0 mm 10 mps 773 mmHg 71%
    23:00 +7°C° 0 mm 10 mps 773 mmHg 70%
    Show more

    XHprof extension not loaded